Location: Newark
(46.7636°N, 1.8358°W)
Time: 01:25:12
(UTC+00:00)

Tiros 1 - Visible Passes

Search period start: 22 October 2019 00:00
Search period end: 01 November 2019 00:00
Orbit: 630 x 664 km, 48.4° (Epoch: 21 October)

Date Brightness Start Highest point End Pass type
(mag) Time Alt. Az. Time Alt. Az. Time Alt. Az.
22 Oct 10.1 02:41:14 13° ENE 02:41:14 13° ENE 02:41:47 10° ENE visible
22 Oct 7.1 04:18:55 67° NW 04:19:21 73° N 04:24:11 10° E visible
22 Oct 7.4 05:56:51 10° WNW 06:01:38 65° SSW 06:06:24 10° ESE visible
23 Oct 9.5 03:06:16 21° ENE 03:06:16 21° ENE 03:07:56 10° E visible
23 Oct 7.1 04:43:57 43° WNW 04:45:31 86° N 04:50:23 10° ESE visible
24 Oct 8.7 03:31:21 34° E 03:31:21 34° E 03:34:08 10° E visible
24 Oct 7.2 05:09:02 27° W 05:11:36 68° SSW 05:16:24 10° ESE visible
25 Oct 7.7 03:56:28 57° E 03:56:28 57° E 04:00:20 10° ESE visible
25 Oct 7.8 05:34:09 16° W 05:37:32 41° SSW 05:42:01 10° SE visible
26 Oct 10.3 02:43:58 11° E 02:43:58 11° E 02:44:05 10° E visible
26 Oct 7.1 04:21:39 70° SSW 04:21:39 70° SSW 04:26:22 10° ESE visible
26 Oct 8.6 05:59:32 10° W 06:03:16 23° SW 06:06:59 10° S visible
27 Oct 9.8 03:09:14 16° E 03:09:14 16° E 03:10:17 10° E visible
27 Oct 7.6 04:46:55 41° SW 04:47:31 43° SSW 04:52:03 10° SE visible
28 Oct 9.2 03:34:34 23° ESE 03:34:34 23° ESE 03:36:21 10° ESE visible
28 Oct 8.4 05:12:16 22° WSW 05:13:17 24° SW 05:17:07 10° SSE visible
29 Oct 8.9 04:00:01 24° SSE 04:00:01 24° SSE 04:02:06 10° SE visible
29 Oct 9.2 05:37:42 11° WSW 05:38:51 12° SW 05:40:39 10° SSW visible
30 Oct 9.1 04:25:32 18° S 04:25:32 18° S 04:27:14 10° SSE visible
